GW4081 Weather Reports


Display with metric or nautical units.
time (UTC)temp
F
wind
direction
speed
MPH
gust
MPH
rain 1hr
in
rain 24hr
in
rain mn
in
humidity
%
barometer
mb
20240523154604 74 110 3.0 7.0 0.00 0.00 0.00 85 1010.2
20240523154104 74 92 2.0 8.0 0.00 0.00 0.00 85 1010.3
20240523153604 74 95 3.0 8.0 0.00 0.00 0.00 84 1010.4
20240523153104 74 89 3.0 8.0 0.00 0.00 0.00 84 1010.3
20240523152605 74 74 5.0 8.0 0.00 0.00 0.00 83 1010.4
20240523152104 74 65 4.0 7.0 0.00 0.00 0.00 83 1010.4
20240523151604 75 103 3.0 7.0 0.00 0.00 0.00 84 1010.4
20240523151104 75 120 3.0 7.0 0.00 0.00 0.00 83 1010.4
20240523150104 76 126 3.0 8.0 0.00 0.00 0.00 82 1010.3
20240523145604 76 156 3.0 7.0 0.00 0.00 0.00 82 1010.2
20240523145104 76 125 2.0 7.0 0.00 0.00 0.00 82 1010.2
20240523144604 76 138 2.0 8.0 0.00 0.00 0.00 82 1010.2
20240523143603 76 135 5.0 7.0 0.00 0.00 0.00 83 1010.2
20240523143104 76 153 4.0 6.0 0.00 0.00 0.00 82 1010.3
20240523142604 76 169 2.0 6.0 0.00 0.00 0.00 82 1010.3
20240523142104 76 119 1.0 6.0 0.00 0.00 0.00 83 1010.3
20240523141604 75 116 2.0 6.0 0.00 0.00 0.00 84 1010.2
20240523140104 74 141 1.0 7.0 0.00 0.00 0.00 86 1010.3
20240523134604 73 185 2.0 7.0 0.00 0.00 0.00 88 1010.4
20240523134104 72 169 4.0 7.0 0.00 0.00 0.00 88 1010.4
20240523133604 72 131 4.0 7.0 0.00 0.00 0.00 89 1010.4
20240523133104 71 155 2.0 7.0 0.00 0.00 0.00 89 1010.3
20240523132604 71 159 3.0 7.0 0.00 0.00 0.00 89 1010.4
20240523132104 70 159 1.0 6.0 0.00 0.00 0.00 89 1010.2
20240523131604 70 158 3.0 6.0 0.00 0.00 0.00 89 1010.2
20240523131104 70 147 1.0 3.0 0.00 0.00 0.00 90 1010.3
20240523130604 70 152 0.0 0.0 0.00 0.00 0.00 90 1010.2
20240523130104 69 126 0.0 0.0 0.00 0.00 0.00 91 1010.2
20240523125604 68 108 0.0 0.0 0.00 0.00 0.00 92 1010.2
20240523125104 68 108 0.0 0.0 0.00 0.00 0.00 92 1010.2
20240523124604 67 108 0.0 0.0 0.00 0.00 0.00 91 1010.3
20240523124104 67 109 0.0 0.0 0.00 0.00 0.00 91 1010.4
20240523123604 67 109 0.0 0.0 0.00 0.00 0.00 90 1010.4
20240523123104 67 109 0.0 0.0 0.00 0.00 0.00 91 1010.5
20240523122604 66 109 0.0 0.0 0.00 0.00 0.00 91 1010.5
20240523121104 66 108 0.0 0.0 0.00 0.04 0.00 90 1010.3
20240523120603 66 108 0.0 0.0 0.00 0.09 0.00 89 1010.2
20240523120104 66 108 0.0 0.0 0.00 0.11 0.00 90 1010.2
20240523115604 66 108 0.0 0.0 0.00 0.12 0.00 90 1010.2
20240523115104 66 108 0.0 0.0 0.00 0.13 0.00 90 1010.2
20240523114104 65 108 0.0 0.0 0.00 0.53 0.00 89 1010.0
20240523113604 65 108 0.0 0.0 0.00 0.75 0.00 89 1010.1
20240523113104 65 108 0.0 0.0 0.00 0.84 0.00 89 1010.2
20240523112604 65 108 0.0 0.0 0.00 0.89 0.00 89 1010.2
20240523112104 66 108 0.0 0.0 0.00 0.90 0.00 90 1010.1
20240523111603 65 108 0.0 0.0 0.00 0.90 0.00 88 1010.1
20240523111104 65 109 0.0 0.0 0.00 0.90 0.00 88 1009.9
20240523110605 65 109 0.0 0.0 0.00 0.90 0.00 88 1009.9
20240523105605 65 109 0.0 3.0 0.00 0.90 0.00 88 1010.0
20240523105104 65 109 1.0 3.0 0.00 0.90 0.00 88 1010.0
20240523104604 65 133 1.0 3.0 0.00 0.90 0.00 88 1009.9
20240523104104 65 133 2.0 3.0 0.00 0.90 0.00 88 1009.9
20240523103604 65 110 2.0 6.0 0.00 0.90 0.00 87 1010.0
20240523103104 64 118 3.0 9.0 0.00 0.90 0.00 87 1010.2
20240523102604 64 122 3.0 9.0 0.00 0.90 0.00 87 1010.1
20240523102103 64 121 5.0 12.0 0.00 0.90 0.00 88 1010.1
20240523101604 64 125 5.0 12.0 0.00 0.90 0.00 88 1010.1
20240523100604 63 131 6.0 9.0 0.00 0.90 0.00 89 1010.3
20240523100104 62 102 4.0 8.0 0.00 0.90 0.00 91 1010.4
20240523095104 61 105 2.0 6.0 0.00 0.90 0.00 91 1010.4
20240523094604 61 63 0.0 0.0 0.00 0.90 0.00 91 1010.4
20240523094104 60 63 0.0 0.0 0.00 0.90 0.00 91 1010.4
20240523093604 60 63 0.0 0.0 0.00 0.90 0.00 92 1010.4
20240523093103 60 63 0.0 0.0 0.00 0.90 0.00 92 1010.4
20240523092604 60 63 0.0 0.0 0.00 0.90 0.00 91 1010.4
20240523092104 60 63 0.0 0.0 0.00 0.90 0.00 91 1010.2
20240523091603 60 63 0.0 0.0 0.00 0.90 0.00 91 1010.1
20240523091103 60 63 0.0 0.0 0.00 0.90 0.00 89 1010.0
20240523090604 60 61 0.0 0.0 0.00 0.90 0.00 89 1010.0
20240523090104 61 61 0.0 0.0 0.00 0.90 0.00 89 1009.9
20240523085604 61 61 0.0 0.0 0.00 0.90 0.00 89 1009.9
20240523085104 61 61 0.0 0.0 0.00 0.90 0.00 89 1010.0
20240523084604 61 61 0.0 0.0 0.00 0.90 0.00 89 1010.1
20240523084104 61 61 0.0 0.0 0.00 0.90 0.00 89 1010.0
20240523083604 61 61 0.0 0.0 0.00 0.90 0.00 88 1010.1
20240523083104 61 61 0.0 0.0 0.00 0.90 0.00 88 1010.3
20240523082104 62 61 0.0 0.0 0.00 0.90 0.00 86 1010.3
20240523081104 63 61 0.0 0.0 0.00 0.90 0.00 85 1010.4
20240523080604 63 61 0.0 1.0 0.00 0.90 0.00 84 1010.6
20240523080104 63 61 0.0 2.0 0.00 0.90 0.00 84 1010.7
20240523075604 63 61 0.0 2.0 0.00 0.90 0.00 84 1011.0
20240523075104 63 61 0.0 2.0 0.00 0.90 0.00 83 1011.1
20240523074604 63 61 0.0 0.0 0.00 0.90 0.00 84 1011.0
20240523074104 63 61 0.0 0.0 0.00 0.90 0.00 84 1011.2
20240523073604 63 61 0.0 3.0 0.00 0.90 0.00 84 1011.4
20240523073104 62 61 1.0 3.0 0.00 0.90 0.00 85 1011.3
20240523072604 62 60 1.0 3.0 0.00 0.90 0.00 85 1011.3
20240523072103 62 26 1.0 3.0 0.00 0.90 0.00 84 1011.2
20240523071603 62 69 0.0 3.0 0.00 0.90 0.00 84 1011.2
20240523071104 62 56 1.0 3.0 0.00 0.90 0.00 84 1011.4
20240523070603 62 61 1.0 3.0 0.00 0.90 0.00 84 1011.4
20240523070104 62 53 1.0 3.0 0.00 0.90 0.00 85 1011.4
20240523065603 62 15 2.0 3.0 0.00 0.90 0.00 85 1011.3
20240523065104 62 30 2.0 3.0 0.00 0.90 0.00 87 1011.2
20240523064603 61 13 1.0 3.0 0.00 0.90 0.00 87 1011.3
20240523064104 61 45 0.0 1.0 0.00 0.90 0.00 88 1011.5
20240523063604 61 323 0.0 0.0 0.00 0.90 0.00 88 1011.9
20240523063104 61 323 0.0 0.0 0.00 0.90 0.00 88 1012.1
20240523061603 62 323 0.0 1.0 0.00 0.90 0.00 85 1012.3
20240523061103 63 323 0.0 2.0 0.00 0.90 0.00 85 1012.4
20240523060603 63 323 1.0 2.0 0.00 0.90 0.00 84 1012.4
20240523060103 63 323 0.0 2.0 0.00 0.90 0.00 84 1012.3
20240523055604 63 323 0.0 2.0 0.00 0.90 0.00 83 1012.4
20240523055104 64 323 1.0 2.0 0.00 0.90 0.00 83 1012.4
20240523054604 64 323 1.0 2.0 0.00 0.90 0.00 82 1012.5
20240523054103 64 323 1.0 2.0 0.00 0.90 0.00 82 1012.3
20240523053104 65 323 0.0 3.0 0.00 0.90 0.00 81 1012.4
20240523052604 65 336 1.0 3.0 0.00 0.90 0.00 81 1012.4
20240523052104 65 350 0.0 0.0 0.00 0.90 0.00 81 1012.5
20240523051604 64 118 0.0 0.0 0.00 0.90 0.00 82 1012.4
20240523045604 64 118 0.0 0.0 0.00 0.90 0.90 84 1012.6
20240523045103 64 118 0.0 0.0 0.00 0.90 0.90 82 1012.5
20240523044604 65 118 0.0 0.0 0.00 0.90 0.90 81 1012.4
20240523044104 65 118 0.0 0.0 0.00 0.90 0.90 81 1012.5
20240523043603 66 118 0.0 0.0 0.00 0.90 0.90 79 1012.6
20240523043103 66 118 0.0 0.0 0.00 0.90 0.90 78 1012.6
20240523042603 66 118 0.0 0.0 0.00 0.90 0.90 77 1012.6
20240523042104 66 118 0.0 0.0 0.00 0.90 0.90 77 1012.5
20240523041604 66 118 0.0 0.0 0.00 0.90 0.90 77 1012.4
20240523041103 66 118 0.0 3.0 0.00 0.90 0.90 77 1012.4
20240523040604 66 118 0.0 3.0 0.00 0.90 0.90 77 1012.3
20240523040104 66 98 0.0 3.0 0.00 0.90 0.90 77 1012.4
20240523035604 67 97 0.0 0.0 0.00 0.90 0.90 77 1012.4
20240523035104 67 97 0.0 2.0 0.00 0.90 0.90 75 1012.4
20240523034604 67 97 0.0 2.0 0.00 0.90 0.90 74 1012.2
20240523034104 67 97 1.0 3.0 0.00 0.90 0.90 74 1011.9
20240523033604 67 97 1.0 3.0 0.00 0.90 0.90 74 1011.7
20240523033104 67 97 3.0 3.0 0.00 0.90 0.90 73 1011.8
20240523032603 68 87 2.0 3.0 0.00 0.90 0.90 72 1011.7
20240523032104 68 91 2.0 3.0 0.00 0.90 0.90 72 1011.4
20240523031604 68 93 2.0 7.0 0.00 0.90 0.90 72 1011.4
20240523031104 68 87 2.0 7.0 0.00 0.90 0.90 71 1011.5
20240523030604 68 101 4.0 8.0 0.00 0.90 0.90 71 1011.5
20240523030104 68 96 3.0 8.0 0.00 0.90 0.90 70 1011.4
20240523025603 68 84 3.0 7.0 0.00 0.90 0.90 70 1011.3
20240523025104 68 99 3.0 7.0 0.00 0.90 0.90 69 1011.3
20240523024604 69 103 4.0 7.0 0.00 0.90 0.90 68 1011.2
20240523024104 69 98 3.0 7.0 0.00 0.90 0.90 68 1011.2
20240523023104 69 71 4.0 7.0 0.00 0.90 0.90 68 1011.1
20240523022604 69 93 3.0 8.0 0.00 0.90 0.90 68 1011.1
20240523021604 69 106 3.0 8.0 0.00 0.90 0.90 68 1011.1
20240523021104 69 107 3.0 7.0 0.00 0.90 0.90 68 1011.1
20240523020604 70 91 3.0 6.0 0.00 0.90 0.90 67 1011.0
20240523020104 70 98 2.0 8.0 0.00 0.90 0.90 67 1010.8
20240523015604 70 87 3.0 9.0 0.00 0.90 0.90 66 1010.8
20240523015104 70 96 5.0 9.0 0.00 0.90 0.90 66 1010.7
20240523014104 71 98 5.0 9.0 0.00 0.90 0.90 64 1010.6
20240523013604 71 96 5.0 10.0 0.00 0.90 0.90 63 1010.7
20240523013104 71 109 6.0 10.0 0.00 0.90 0.90 63 1010.6
20240523012603 71 100 5.0 9.0 0.00 0.90 0.90 63 1010.5
20240523012104 72 92 5.0 9.0 0.00 0.90 0.90 62 1010.4
20240523011604 72 83 3.0 8.0 0.00 0.90 0.90 62 1010.4
20240523011105 72 100 3.0 7.0 0.00 0.90 0.90 61 1010.4
20240523010604 73 99 3.0 7.0 0.00 0.90 0.90 60 1010.4
20240523010103 73 102 5.0 9.0 0.00 0.90 0.90 59 1010.3
20240523005104 74 61 4.0 12.0 0.00 0.90 0.90 57 1010.4
20240523004604 74 38 3.0 12.0 0.00 0.90 0.90 56 1010.3
20240523004104 74 61 4.0 12.0 0.00 0.90 0.90 55 1010.1
20240523003604 74 85 5.0 13.0 0.00 0.90 0.90 55 1010.2
20240523003104 74 78 6.0 13.0 0.00 0.90 0.90 54 1010.2
20240523002604 75 93 7.0 13.0 0.00 0.90 0.90 54 1010.3
20240523002104 75 96 5.0 12.0 0.00 0.90 0.90 54 1010.4
20240523001604 75 87 6.0 16.0 0.00 0.90 0.90 54 1010.5
20240523001104 75 84 6.0 16.0 0.00 0.90 0.90 53 1010.4
20240523000604 75 103 6.0 16.0 0.00 0.90 0.90 52 1010.5
20240523000104 76 99 5.0 13.0 0.00 0.90 0.90 52 1010.6
20240522235604 76 91 5.0 13.0 0.00 0.90 0.90 52 1010.8
20240522235103 77 76 6.0 12.0 0.00 0.90 0.90 49 1010.8
20240522234603 77 86 4.0 12.0 0.00 0.90 0.90 49 1010.7
20240522234104 77 57 3.0 12.0 0.00 0.90 0.90 49 1010.7
20240522233604 77 67 6.0 10.0 0.00 0.90 0.90 48 1010.8
20240522232603 78 93 5.0 13.0 0.00 0.90 0.90 52 1011.0
20240522232104 78 74 6.0 13.0 0.00 0.90 0.90 50 1011.1
20240522231604 78 55 5.0 12.0 0.00 0.90 0.90 49 1011.0
20240522231103 77 74 6.0 14.0 0.00 0.90 0.90 49 1011.0
20240522230603 77 62 4.0 14.0 0.00 0.90 0.90 51 1010.9
20240522230103 77 83 4.0 13.0 0.00 0.90 0.90 53 1011.1
20240522225604 77 93 8.0 14.0 0.00 0.90 0.90 52 1011.3
20240522225103 77 87 7.0 14.0 0.00 0.90 0.90 53 1011.1
20240522224603 77 68 8.0 13.0 0.00 0.90 0.90 53 1011.5
20240522223603 78 43 3.0 13.0 0.00 0.90 0.90 52 1011.4
20240522223104 78 90 5.0 13.0 0.00 0.90 0.90 51 1011.4
20240522222103 78 96 6.0 13.0 0.00 0.90 0.90 52 1011.5
20240522221104 79 100 6.0 14.0 0.00 0.90 0.90 53 1011.6
20240522220104 79 59 5.0 16.0 0.00 0.90 0.90 49 1011.6
20240522215604 79 53 6.0 16.0 0.00 0.90 0.90 48 1011.6
20240522214604 79 52 5.0 13.0 0.00 0.90 0.90 51 1011.6
20240522214103 79 89 6.0 13.0 0.00 0.90 0.90 50 1011.5
20240522212604 79 46 7.0 14.0 0.00 0.90 0.90 50 1011.6
20240522212103 79 70 6.0 12.0 0.00 0.90 0.90 51 1011.7
20240522211604 79 81 4.0 15.0 0.00 0.90 0.90 53 1011.7
20240522210603 79 79 6.0 14.0 0.00 0.90 0.90 52 1011.7
20240522210104 79 52 9.0 18.0 0.00 0.90 0.90 50 1011.7
20240522205605 79 52 9.0 18.0 0.00 0.90 0.90 49 1011.8
20240522205105 79 66 9.0 15.0 0.00 0.90 0.90 52 1011.8
20240522204605 78 26 6.0 16.0 0.00 0.90 0.90 52 1011.8
20240522203105 78 59 6.0 16.0 0.00 0.90 0.90 50 1012.1
20240522202605 78 72 7.0 16.0 0.00 0.90 0.90 51 1012.1
20240522202105 78 35 4.0 12.0 0.00 0.90 0.90 52 1012.3
20240522200604 78 19 4.0 12.0 0.00 0.90 0.90 53 1012.5
20240522200105 77 76 6.0 16.0 0.00 0.90 0.90 54 1012.6
20240522195605 77 54 7.0 16.0 0.00 0.90 0.90 52 1012.4
20240522195105 77 54 6.0 16.0 0.00 0.90 0.90 53 1012.4
20240522194105 77 19 7.0 18.0 0.00 0.90 0.90 50 1012.4
20240522193605 76 31 6.0 22.0 0.00 0.90 0.90 51 1012.3
20240522193105 76 55 10.0 22.0 0.00 0.90 0.90 52 1012.5
20240522192605 77 27 6.0 17.0 0.00 0.90 0.90 50 1012.7
20240522192105 76 16 5.0 15.0 0.00 0.90 0.90 52 1012.7
20240522191604 76 34 6.0 14.0 0.00 0.90 0.90 53 1012.9
20240522191105 76 26 6.0 16.0 0.00 0.90 0.90 52 1013.0
20240522190605 76 34 7.0 16.0 0.00 0.90 0.90 52 1013.0
20240522190105 76 27 6.0 16.0 0.00 0.90 0.90 51 1013.0
20240522185105 75 56 7.0 20.0 0.00 0.90 0.90 54 1013.2
20240522184605 75 62 10.0 20.0 0.00 0.90 0.90 54 1013.4
20240522184105 75 47 9.0 18.0 0.00 0.90 0.90 54 1013.5
20240522183605 75 56 10.0 16.0 0.00 0.90 0.90 54 1013.5
20240522183105 75 15 5.0 16.0 0.00 0.90 0.90 57 1013.5
20240522182605 74 67 7.0 17.0 0.00 0.90 0.90 56 1013.7
20240522182105 74 45 9.0 20.0 0.00 0.90 0.90 56 1013.8
20240522181605 74 57 11.0 20.0 0.00 0.90 0.90 55 1013.8
20240522181105 74 59 8.0 20.0 0.00 0.90 0.90 56 1013.8
20240522180105 73 56 10.0 16.0 0.00 0.90 0.90 57 1014.0
20240522175605 74 29 6.0 18.0 0.00 0.90 0.90 58 1014.0
20240522175105 73 35 8.0 18.0 0.00 0.90 0.90 59 1014.3
20240522174605 73 58 7.0 18.0 0.00 0.90 0.90 62 1014.3
20240522174105 72 48 5.0 18.0 0.00 0.90 0.90 63 1014.2
20240522173605 72 48 7.0 15.0 0.00 0.90 0.90 62 1014.3
20240522171605 71 66 5.0 13.0 0.00 0.90 0.90 66 1014.5
20240522171105 70 58 6.0 15.0 0.00 0.90 0.90 67 1014.5
20240522170605 70 41 6.0 15.0 0.00 0.90 0.90 68 1014.4
20240522170105 70 55 6.0 14.0 0.00 0.90 0.90 67 1014.5
20240522165605 70 47 7.0 14.0 0.00 0.90 0.90 68 1014.2
20240522165105 69 38 5.0 15.0 0.00 0.90 0.90 69 1014.4
20240522164605 68 16 7.0 15.0 0.00 0.90 0.90 69 1014.7
20240522164105 68 10 4.0 12.0 0.00 0.90 0.90 71 1014.7
20240522163605 68 49 4.0 12.0 0.00 0.90 0.90 71 1014.6
20240522163105 68 40 7.0 14.0 0.00 0.90 0.90 71 1014.6
20240522162104 67 59 7.0 16.0 0.00 0.90 0.90 72 1014.7
20240522161605 67 50 6.0 21.0 0.00 0.90 0.90 72 1014.8
20240522161105 67 47 10.0 21.0 0.00 0.90 0.90 72 1014.9
20240522160605 67 39 7.0 15.0 0.00 0.90 0.90 73 1014.8
20240522160104 67 33 7.0 20.0 0.00 0.90 0.90 76 1014.7
20240522155605 66 16 8.0 20.0 0.00 0.90 0.90 76 1014.7
20240522155105 66 64 6.0 20.0 0.00 0.90 0.90 77 1014.8